This is the latest recevied weather packets stored in our database for station/object KD7JB. If no packets are shown the sender has not sent any weather packets the latest 10 day(s).
| Time | Temp. | Humidity | Pressure | Rain* | Wind** | Luminosity | Snow |
|---|---|---|---|---|---|---|---|
| 1778046605 | 16.11° C | 51% | 1174.5 hPa | 0 mm | - | 0 W/m² | - |
| 1778046302 | 16.11° C | 50% | 1174.5 hPa | 0 mm | - | 0 W/m² | - |
| 1778045997 | 15.56° C | 51% | 1174.5 hPa | 0 mm | - | 0 W/m² | - |
| 1778045696 | 15.56° C | 51% | 1174.3 hPa | 0 mm | - | 0 W/m² | - |
| 1778045394 | 16.11° C | 51% | 1174.6 hPa | 0 mm | - | 0 W/m² | - |
| 1778045093 | 16.11° C | 50% | 1174.4 hPa | 0 mm | - | 0 W/m² | - |
| 1778044789 | 16.67° C | 50% | 1174.5 hPa | 0 mm | - | 0 W/m² | - |
| 1778044486 | 16.67° C | 50% | 1174.6 hPa | 0 mm | - | 0 W/m² | - |
| 1778044183 | 16.11° C | 50% | 1174.5 hPa | 0 mm | - | 0 W/m² | - |
| 1778043881 | 16.11° C | 50% | 1174.5 hPa | 0 mm | - | 0 W/m² | - |
| 1778043578 | 16.11° C | 50% | 1174.6 hPa | 0 mm | - | 0 W/m² | - |
| 1778043275 | 16.11° C | 51% | 1174.5 hPa | 0 mm | - | 0 W/m² | - |
| 1778042971 | 16.11° C | 50% | 1174.3 hPa | 0 mm | - | 0 W/m² | - |
| 1778042670 | 16.11° C | 50% | 1174.5 hPa | 0 mm | - | 0 W/m² | - |
| 1778042366 | 16.11° C | 50% | 1174.5 hPa | 0 mm | - | 0 W/m² | - |
| 1778042063 | 16.67° C | 50% | 1174.5 hPa | 0 mm | - | 0 W/m² | - |
| 1778041761 | 16.67° C | 49% | 1174.3 hPa | 0 mm | - | 0 W/m² | - |
| 1778041460 | 16.67° C | 49% | 1174.3 hPa | 0 mm | - | 0 W/m² | - |
| 1778041158 | 16.67° C | 49% | 1174.5 hPa | 0 mm | - | 0 W/m² | - |
| 1778040855 | 17.22° C | 48% | 1174.4 hPa | 0 mm | - | 0 W/m² | - |
| 1778040552 | 17.22° C | 47% | 1174.2 hPa | 0 mm | - | 0 W/m² | - |
| 1778040250 | 17.22° C | 47% | 1174.4 hPa | 0 mm | - | 0 W/m² | - |
| 1778039945 | 17.22° C | 47% | 1174.2 hPa | 0 mm | - | 0 W/m² | - |
| 1778039643 | 17.22° C | 47% | 1174.2 hPa | 0 mm | - | 0 W/m² | - |
| 1778039340 | 16.67° C | 49% | 1174.2 hPa | 0 mm | - | 0 W/m² | - |
* Rain latest hour (hover to see other rain measurements)
** Current wind speed in m/s (hover to see current wind gust speed)